Jaipur, India

2:31 PM IST on February 21, 2018 (GMT +0530)
Jaipur

Weather History for VIJP - July, 2013

Change the Weather History Date:

Wednesday, July 24, 2013

  Actual Average Record
Temperature  
Mean Temperature 88 °F -  
Max Temperature 95 °F - - ()
Min Temperature 81 °F - - ()
Cooling Degree Days 23    
Growing Degree Days 38 (Base 50)    
Moisture  
Dew Point 79 °F    
Average Humidity 76    
Maximum Humidity 94    
Minimum Humidity 50    
Precipitation  
Precipitation 0.00 in - - ()
Sea Level Pressure  
Sea Level Pressure 29.49 in    
Wind  
Wind Speed 5 mph ()    
Max Wind Speed 10 mph    
Max Gust Speed -    
Visibility 1.9 miles    
Events      
T = Trace of Precipitation, MM = Missing Value Source: Averaged Metar Reports

Daily Weather History Graph

Daily Weather History Graph

Search for Another Location

Airport or City:

Trip Planner

Search our weather history database for the weather conditions in past years. The results will help you decide how hot, cold, wet, or windy it might be!

Date:

Astronomy

Jul. 24, 2013 Rise Set
Actual Time 5:47 AM IST 7:19 PM IST
Civil Twilight 5:21 AM IST 7:44 PM IST
Nautical Twilight 4:51 AM IST 8:14 PM IST
Astronomical Twilight 4:19 AM IST 8:46 PM IST
Moon 8:26 PM IST (7/24) 7:19 AM IST (7/24)
Length of Visible Light 14h 22m
Length of Day
13h 32m
Waning Gibbous, 97% of the Moon is Illuminated
Jul 24
Waning Gibbous
Jul 29
Last Quarter
Aug 7
New
Aug 14
First Quarter
Aug 21
Full

Hourly Weather History & Observations

Time (IST) Temp. Heat Index Dew Point Humidity Pressure Visibility Wind Dir Wind Speed Gust Speed Precip Events Conditions
12:00 AM 82.4 °F 92.4 °F 78.8 °F 89% 29.53 in 1.9 mi East 5.8 mph - N/A   Scattered Clouds
1:00 AM 82.4 °F 92.4 °F 78.8 °F 89% 29.53 in 1.9 mi ESE 3.5 mph - N/A   Scattered Clouds
2:00 AM 80.6 °F 88.1 °F 78.8 °F 94% 29.53 in 1.9 mi East 4.6 mph - N/A   Scattered Clouds
2:30 AM 82 °F - 79 °F 87% 29.46 in 1 mi East 4.6 mph - -   Mist
3:00 AM 82.4 °F 92.4 °F 78.8 °F 89% 29.53 in 1.9 mi ENE 4.6 mph - N/A   Scattered Clouds
4:00 AM 82.4 °F 92.4 °F 78.8 °F 89% 29.53 in 1.9 mi ENE 4.6 mph - N/A   Scattered Clouds
5:00 AM 82.4 °F 92.4 °F 78.8 °F 89% 29.53 in 1.9 mi ENE 5.8 mph - N/A   Scattered Clouds
5:30 AM 82 °F - 79 °F 88% 29.46 in 1 mi NE 5.8 mph - -   Mist
6:00 AM 82.4 °F 92.4 °F 78.8 °F 89% 29.53 in 1.9 mi NE 5.8 mph - N/A   Scattered Clouds
7:00 AM 84.2 °F 96.1 °F 78.8 °F 84% 29.53 in 1.9 mi ENE 6.9 mph - N/A   Scattered Clouds
8:00 AM 86.0 °F 101.9 °F 80.6 °F 84% 29.53 in 1.9 mi East 9.2 mph - N/A   Scattered Clouds
8:30 AM 87 °F - 80 °F 75% 29.46 in 1 mi East 10.4 mph - -   Mist
9:00 AM 87.8 °F 104.9 °F 80.6 °F 79% 29.53 in 1.9 mi East 9.2 mph - N/A   Partly Cloudy
10:00 AM 89.6 °F 108.2 °F 80.6 °F 75% 29.56 in 2.2 mi ESE 9.2 mph - N/A   Haze
11:00 AM 87.8 °F 104.9 °F 80.6 °F 79% 29.56 in 2.2 mi East 6.9 mph - N/A   Haze
12:00 PM 93.2 °F 113.6 °F 80.6 °F 67% 29.56 in 2.2 mi East 6.9 mph - N/A   Haze
1:00 PM 91.4 °F 107.2 °F 78.8 °F 66% 29.53 in 2.2 mi SSE 8.1 mph - N/A   Haze
2:00 PM 91.4 °F 107.2 °F 78.8 °F 66% 29.50 in 2.2 mi East 5.8 mph - N/A   Haze
2:30 PM 93 °F - 76 °F 50% 29.40 in 1 mi East 9.2 mph - -   Haze
3:00 PM 95.0 °F 112.2 °F 78.8 °F 59% 29.47 in 2.2 mi East 8.1 mph - N/A   Haze
4:00 PM 95.0 °F 112.2 °F 78.8 °F 59% 29.47 in 2.5 mi East 6.9 mph - N/A   Haze
5:00 PM 93.2 °F 107.2 °F 77.0 °F 59% 29.44 in 2.5 mi East 6.9 mph - N/A   Haze
5:30 PM 93 °F - 77 °F 51% 29.35 in 2 mi East 6.9 mph - -   Haze
6:00 PM 93.2 °F 110.2 °F 78.8 °F 63% 29.44 in 2.5 mi East 6.9 mph - N/A   Haze
7:00 PM 89.6 °F 108.2 °F 80.6 °F 75% 29.44 in 2.5 mi ESE 4.6 mph - N/A   Haze
8:00 PM 89.6 °F 104.7 °F 78.8 °F 70% 29.47 in 2.2 mi Calm Calm - N/A   Haze
8:30 PM 89 °F - 80 °F 69% 29.42 in 1 mi 2.3 mph - -   Haze
10:00 PM 86.0 °F 101.9 °F 80.6 °F 84% 29.53 in 1.9 mi ESE 4.6 mph - N/A   Scattered Clouds
11:00 PM 84.2 °F 96.1 °F 78.8 °F 84% 29.53 in 1.9 mi SSW 8.1 mph - N/A   Scattered Clouds
11:30 PM 84 °F - 79 °F 82% 29.44 in 1 mi SE 4.6 mph - -   Mist